Little Bear Creek Observed Data For Previous 48 Hours

Caption
Day and Hour Reservoir Elevation (behind dam)* Tailwater Elevation (below dam)* Average Hourly Discharge*
3/18/2019 1 AM CDT 618.11 545.97 370
3/18/2019 2 AM CDT 618.10 546.00 370
3/18/2019 3 AM CDT 618.09 546.01 370
3/18/2019 4 AM CDT 618.07 545.97 370
3/18/2019 5 AM CDT 618.05 545.96 370
3/18/2019 6 AM CDT 618.04 545.98 370
3/18/2019 7 AM CDT 618.03 545.97 370
3/18/2019 8 AM CDT 618.00 545.96 370
3/18/2019 9 AM CDT 618.00 545.97 370
3/18/2019 10 AM CDT 617.98 545.98 370
3/18/2019 11 AM CDT 617.97 545.97 370
3/18/2019 12 PM CDT 617.94 545.96 370
3/18/2019 1 PM CDT 617.93 545.98 370
3/18/2019 2 PM CDT 617.92 545.95 370
3/18/2019 3 PM CDT 617.91 546.00 370
3/18/2019 4 PM CDT 617.89 545.95 370
3/18/2019 5 PM CDT 617.87 545.96 370
3/18/2019 6 PM CDT 617.85 545.99 370
3/18/2019 7 PM CDT 617.85 545.95 370
3/18/2019 8 PM CDT 617.82 545.99 370
3/18/2019 9 PM CDT 617.82 545.96 370
3/18/2019 10 PM CDT 617.80 545.98 370
3/18/2019 11 PM CDT 617.79 545.95 370
3/19/2019 12 AM CDT 617.77 546.00 370
3/19/2019 1 AM CDT 617.76 545.97 370
3/19/2019 2 AM CDT 617.74 545.98 370
3/19/2019 3 AM CDT 617.72 545.96 370
3/19/2019 4 AM CDT 617.71 545.96 370
3/19/2019 5 AM CDT 617.70 545.95 370
3/19/2019 6 AM CDT 617.68 545.98 370
3/19/2019 7 AM CDT 617.67 545.97 370
3/19/2019 8 AM CDT 617.64 545.94 370
3/19/2019 9 AM CDT 617.63 545.36 370
3/19/2019 10 AM CDT 617.63 545.36 235
3/19/2019 11 AM CDT 617.62 545.35 235
3/19/2019 12 PM CDT 617.61 545.35 235
3/19/2019 1 PM CDT 617.61 545.33 235
3/19/2019 2 PM CDT 617.59 545.33 235
3/19/2019 3 PM CDT 617.59 545.35 235
3/19/2019 4 PM CDT 617.58 545.36 235
3/19/2019 5 PM CDT 617.58 545.35 235
3/19/2019 6 PM CDT 617.56 545.35 235
3/19/2019 7 PM CDT 617.55 545.34 235
3/19/2019 8 PM CDT 617.55 545.37 235
3/19/2019 9 PM CDT 617.54 545.37 235
3/19/2019 10 PM CDT 617.53 545.36 235
3/19/2019 11 PM CDT 617.52 545.33 235
3/20/2019 12 AM CDT 617.51 545.34 235
3/20/2019 1 AM CDT 617.50 545.36 235
3/20/2019 2 AM CDT 617.50 545.35 235
3/20/2019 3 AM CDT 617.49 545.36 235
3/20/2019 4 AM CDT 617.49 545.33 235
3/20/2019 5 AM CDT 617.47 545.34 235
3/20/2019 6 AM CDT 617.46 545.37 235

Elevations are in feet above sea level. Discharges are in cubic feet per second and are reported at the end of the hour.